Farmington, MO

1:25 PM CDT on April 22, 2018 (GMT -0500)
Farmington Regional

Weather History for KFAM - April, 2014

Change the Weather History Date:

Tuesday, April 29, 2014

  Actual Average Record
Temperature  
Mean Temperature 57 °F -  
Max Temperature 66 °F 68 °F 84 °F (2007)
Min Temperature 48 °F 48 °F 30 °F (2008)
Degree Days  
Heating Degree Days 8    
Growing Degree Days 7 (Base 50)    
Moisture  
Dew Point 39 °F    
Average Humidity 53    
Maximum Humidity 72    
Minimum Humidity 37    
Precipitation  
Precipitation 0.00 in - - ()
Sea Level Pressure  
Sea Level Pressure 29.62 in    
Wind  
Wind Speed 10 mph (SW)    
Max Wind Speed 24 mph    
Max Gust Speed 37 mph    
Visibility 10 miles    
Events      
Averages and records for this station are not official NWS values.
T = Trace of Precipitation, MM = Missing Value Source: NWS Daily Summary

Daily Weather History Graph

Daily Weather History Graph

Search for Another Location

Airport or City:

Astronomy

Apr. 29, 2014 Rise Set
Actual Time 6:08 AM CDT 7:50 PM CDT
Civil Twilight 5:40 AM CDT 8:18 PM CDT
Nautical Twilight 5:06 AM CDT 8:52 PM CDT
Astronomical Twilight 4:30 AM CDT 9:28 PM CDT
Moon 6:26 AM CDT (4/29) 8:30 PM CDT (4/29)
Length of Visible Light 14h 38m
Length of Day
13h 41m
New Moon, 0% of the Moon is Illuminated
Apr 29
New Moon
May 6
First Quarter
May 14
Full
May 21
Last Quarter
May 28
New

Hourly Weather History & Observations

Time (CDT) Temp. Dew Point Humidity Pressure Visibility Wind Dir Wind Speed Gust Speed Precip Events Conditions
12:15 AM 53.6 °F 44.6 °F 72% 29.57 in 10.0 mi South 5.8 mph - N/A   Clear
12:35 AM 53.6 °F 42.8 °F 67% 29.58 in 10.0 mi SSW 5.8 mph - N/A   Clear
12:55 AM 53.6 °F 42.8 °F 67% 29.57 in 10.0 mi SSW 8.1 mph - N/A   Clear
1:15 AM 53.6 °F 41.0 °F 62% 29.56 in 10.0 mi South 6.9 mph - N/A   Clear
1:35 AM 53.6 °F 39.2 °F 58% 29.56 in 10.0 mi South 5.8 mph - N/A   Clear
1:55 AM 53.6 °F 39.2 °F 58% 29.56 in 10.0 mi South 8.1 mph - N/A   Clear
2:15 AM 53.6 °F 39.2 °F 58% 29.56 in 10.0 mi South 9.2 mph - N/A   Clear
2:35 AM 53.6 °F 39.2 °F 58% 29.55 in 10.0 mi South 6.9 mph - N/A   Clear
2:55 AM 53.6 °F 39.2 °F 58% 29.55 in 10.0 mi South 5.8 mph - N/A   Clear
3:15 AM 53.6 °F 39.2 °F 58% 29.55 in 10.0 mi South 5.8 mph - N/A   Clear
3:35 AM 53.6 °F 39.2 °F 58% 29.54 in 10.0 mi South 6.9 mph - N/A   Clear
3:55 AM 51.8 °F 39.2 °F 62% 29.54 in 10.0 mi South 8.1 mph - N/A   Clear
4:15 AM 53.6 °F 39.2 °F 58% 29.54 in 10.0 mi South 8.1 mph - N/A   Clear
4:35 AM 51.8 °F 39.2 °F 62% 29.54 in 10.0 mi South 9.2 mph - N/A   Clear
4:55 AM 51.8 °F 39.2 °F 62% 29.54 in 10.0 mi South 9.2 mph - N/A   Clear
5:15 AM 51.8 °F 39.2 °F 62% 29.53 in 10.0 mi South 8.1 mph - N/A   Clear
5:35 AM 51.8 °F 39.2 °F 62% 29.54 in 10.0 mi South 8.1 mph - N/A   Clear
5:55 AM 50.0 °F 39.2 °F 66% 29.54 in 10.0 mi South 6.9 mph - N/A   Clear
6:15 AM 51.8 °F 39.2 °F 62% 29.55 in 10.0 mi SSW 8.1 mph - N/A   Clear
6:35 AM 50.0 °F 39.2 °F 66% 29.55 in 10.0 mi South 6.9 mph - N/A   Clear
6:55 AM 50.0 °F 39.2 °F 66% 29.56 in 10.0 mi SSW 6.9 mph - N/A   Clear
7:15 AM 51.8 °F 41.0 °F 67% 29.56 in 10.0 mi South 8.1 mph - N/A   Clear
7:35 AM 53.6 °F 41.0 °F 62% 29.57 in 10.0 mi South 8.1 mph - N/A   Clear
7:55 AM 55.4 °F 39.2 °F 54% 29.57 in 10.0 mi WSW 15.0 mph 19.6 mph N/A   Clear
8:15 AM 55.4 °F 39.2 °F 54% 29.58 in 10.0 mi WSW 15.0 mph 24.2 mph N/A   Clear
8:35 AM 55.4 °F 37.4 °F 51% 29.58 in 10.0 mi WSW 12.7 mph 17.3 mph N/A   Clear
8:55 AM 57.2 °F 37.4 °F 48% 29.58 in 10.0 mi SW 20.7 mph 27.6 mph N/A   Clear
9:15 AM 57.2 °F 37.4 °F 48% 29.58 in 10.0 mi WSW 13.8 mph 21.9 mph N/A   Clear
9:35 AM 59.0 °F 39.2 °F 48% 29.59 in 10.0 mi SW 11.5 mph 18.4 mph N/A   Clear
9:55 AM 60.8 °F 39.2 °F 45% 29.59 in 10.0 mi WSW 12.7 mph 19.6 mph N/A   Clear
10:15 AM 60.8 °F 39.2 °F 45% 29.59 in 10.0 mi SW 13.8 mph 20.7 mph N/A   Clear
10:35 AM 62.6 °F 37.4 °F 39% 29.59 in 10.0 mi SW 18.4 mph 26.5 mph N/A   Clear
10:55 AM 62.6 °F 37.4 °F 39% 29.59 in 10.0 mi SW 15.0 mph 24.2 mph N/A   Clear
11:15 AM 62.6 °F 39.2 °F 42% 29.59 in 10.0 mi SW 13.8 mph 19.6 mph N/A   Clear
11:35 AM 64.4 °F 37.4 °F 37% 29.59 in 10.0 mi SW 15.0 mph 24.2 mph N/A   Clear
11:55 AM 64.4 °F 37.4 °F 37% 29.59 in 10.0 mi South 17.3 mph 23.0 mph N/A   Clear
12:15 PM 64.4 °F 37.4 °F 37% 29.59 in 10.0 mi South 20.7 mph 25.3 mph N/A   Clear
12:35 PM 64.4 °F 37.4 °F 37% 29.60 in 10.0 mi South 19.6 mph 26.5 mph N/A   Clear
12:55 PM 66.2 °F 39.2 °F 37% 29.60 in 10.0 mi South 24.2 mph 29.9 mph N/A   Clear
1:15 PM 66.2 °F 39.2 °F 37% 29.59 in 10.0 mi South 16.1 mph 36.8 mph N/A   Clear
1:35 PM 66.2 °F 39.2 °F 37% 29.59 in 10.0 mi SSW 23.0 mph 29.9 mph N/A   Clear
1:55 PM 66.2 °F 41.0 °F 40% 29.59 in 10.0 mi South 19.6 mph 25.3 mph N/A   Partly Cloudy
2:15 PM 66.2 °F 39.2 °F 37% 29.59 in 10.0 mi SSW 16.1 mph 28.8 mph N/A   Partly Cloudy
2:35 PM 66.2 °F 42.8 °F 43% 29.59 in 10.0 mi South 18.4 mph 23.0 mph N/A   Scattered Clouds
2:55 PM 64.4 °F 41.0 °F 42% 29.59 in 10.0 mi South 16.1 mph 26.5 mph N/A   Mostly Cloudy
3:15 PM 64.4 °F 39.2 °F 40% 29.60 in 10.0 mi South 17.3 mph 26.5 mph N/A   Mostly Cloudy
3:35 PM 64.4 °F 41.0 °F 42% 29.60 in 10.0 mi South 15.0 mph 24.2 mph N/A   Mostly Cloudy
4:15 PM 64.4 °F 37.4 °F 37% 29.62 in 10.0 mi West 6.9 mph 19.6 mph N/A   Overcast
4:35 PM 62.6 °F 39.2 °F 42% 29.62 in 10.0 mi WSW 15.0 mph 21.9 mph N/A   Overcast
4:55 PM 62.6 °F 39.2 °F 42% 29.64 in 10.0 mi WNW 12.7 mph 23.0 mph N/A   Overcast
5:15 PM 60.8 °F 37.4 °F 42% 29.65 in 10.0 mi West 12.7 mph 27.6 mph N/A   Mostly Cloudy
5:35 PM 59.0 °F 37.4 °F 45% 29.66 in 10.0 mi West 11.5 mph 21.9 mph N/A   Partly Cloudy
5:55 PM 59.0 °F 37.4 °F 45% 29.67 in 10.0 mi West 13.8 mph 21.9 mph N/A   Partly Cloudy
6:15 PM 59.0 °F 39.2 °F 48% 29.68 in 10.0 mi West 9.2 mph 18.4 mph N/A   Scattered Clouds
6:35 PM 57.2 °F 37.4 °F 48% 29.69 in 10.0 mi West 10.4 mph 19.6 mph N/A   Mostly Cloudy
6:55 PM 55.4 °F 37.4 °F 51% 29.70 in 10.0 mi West 11.5 mph 19.6 mph N/A   Mostly Cloudy
7:15 PM 55.4 °F 39.2 °F 54% 29.71 in 10.0 mi West 9.2 mph - N/A   Overcast
7:35 PM 55.4 °F 39.2 °F 54% 29.72 in 10.0 mi West 12.7 mph 18.4 mph N/A   Overcast
7:55 PM 55.4 °F 37.4 °F 51% 29.73 in 10.0 mi West 9.2 mph - N/A   Overcast
8:15 PM 53.6 °F 37.4 °F 54% 29.74 in 10.0 mi West 9.2 mph - N/A   Mostly Cloudy
8:35 PM 53.6 °F 37.4 °F 54% 29.75 in 10.0 mi West 8.1 mph - N/A   Clear
8:55 PM 51.8 °F 37.4 °F 58% 29.76 in 10.0 mi West 8.1 mph - N/A   Clear
9:15 PM 51.8 °F 37.4 °F 58% 29.77 in 10.0 mi WSW 9.2 mph - N/A   Scattered Clouds
9:35 PM 51.8 °F 37.4 °F 58% 29.77 in 10.0 mi WSW 9.2 mph - N/A   Mostly Cloudy
9:55 PM 51.8 °F 37.4 °F 58% 29.78 in 10.0 mi WSW 6.9 mph - N/A   Partly Cloudy
10:15 PM 50.0 °F 37.4 °F 62% 29.79 in 10.0 mi WSW 5.8 mph - N/A   Clear
10:35 PM 50.0 °F 37.4 °F 62% 29.79 in 10.0 mi WSW 6.9 mph - N/A   Mostly Cloudy
10:55 PM 50.0 °F 37.4 °F 62% 29.80 in 10.0 mi WSW 5.8 mph - N/A   Mostly Cloudy
11:15 PM 48.2 °F 39.2 °F 71% 29.80 in 10.0 mi WSW 8.1 mph - N/A   Scattered Clouds
11:35 PM 48.2 °F 37.4 °F 66% 29.80 in 10.0 mi West 8.1 mph - N/A   Partly Cloudy
11:55 PM 48.2 °F 37.4 °F 66% 29.80 in 10.0 mi West 4.6 mph - N/A   Partly Cloudy